Time,TemperatureF,DewpointF,PressureIn,WindDirection,WindDirectionDegrees,WindSpeedMPH,WindSpeedGustMPH,Humidity,HourlyPrecipIn,Conditions,Clouds,dailyrainin,SoftwareType,DateUTC
2013-06-26 00:00:00,75.2,72.1,30.04,SSE,163,0.0,4.0,90,0.00,,,0.00,WeatherTracker,2013-06-26 05:00:00,
2013-06-26 00:10:00,75.2,72.1,30.04,SSE,163,0.0,0.0,90,0.00,,,0.00,WeatherTracker,2013-06-26 05:10:00,
2013-06-26 00:20:00,75.1,72.3,30.03,SSE,163,0.0,0.0,91,0.00,,,0.00,WeatherTracker,2013-06-26 05:20:00,
2013-06-26 00:25:00,75.0,72.2,30.03,SSE,163,0.0,0.0,91,0.00,,,0.00,WeatherTracker,2013-06-26 05:25:00,
2013-06-26 00:30:00,74.9,72.1,30.03,SSE,163,0.0,0.0,91,0.00,,,0.00,WeatherTracker,2013-06-26 05:30:00,
2013-06-26 00:35:00,74.9,72.1,30.03,SSE,163,0.0,0.0,91,0.00,,,0.00,WeatherTracker,2013-06-26 05:35:00,
2013-06-26 00:40:00,74.9,72.1,30.03,SSE,163,0.0,0.0,91,0.00,,,0.00,WeatherTracker,2013-06-26 05:40:00,
2013-06-26 00:45:00,74.8,72.0,30.03,SSE,163,0.0,0.0,91,0.00,,,0.00,WeatherTracker,2013-06-26 05:45:00,
2013-06-26 00:55:00,74.7,71.9,30.03,SSE,163,0.0,0.0,91,0.00,,,0.00,WeatherTracker,2013-06-26 05:55:00,
2013-06-26 01:00:00,74.5,72.0,30.02,SSE,163,2.0,0.0,92,0.00,,,0.00,WeatherTracker,2013-06-26 06:00:00,
2013-06-26 01:10:00,74.5,72.0,30.02,SSE,163,1.0,5.0,92,0.00,,,0.00,WeatherTracker,2013-06-26 06:10:00,
2013-06-26 01:15:00,74.4,72.2,30.02,SSE,163,4.0,4.0,93,0.00,,,0.00,WeatherTracker,2013-06-26 06:15:00,
2013-06-26 01:20:00,74.4,72.2,30.02,SSE,163,2.0,4.0,93,0.00,,,0.00,WeatherTracker,2013-06-26 06:20:00,
2013-06-26 01:25:00,74.4,72.2,30.02,SSE,163,0.0,4.0,93,0.00,,,0.00,WeatherTracker,2013-06-26 06:25:00,
2013-06-26 01:30:00,74.4,72.2,30.02,SSE,163,1.0,4.0,93,0.00,,,0.00,WeatherTracker,2013-06-26 06:30:00,
2013-06-26 01:40:00,74.4,72.6,30.01,SSE,163,0.0,2.0,94,0.00,,,0.00,WeatherTracker,2013-06-26 06:40:00,
2013-06-26 01:45:00,74.4,72.6,30.01,SSE,163,0.0,2.0,94,0.00,,,0.00,WeatherTracker,2013-06-26 06:45:00,
2013-06-26 01:50:00,74.4,72.6,30.01,SSE,163,0.0,1.0,94,0.00,,,0.00,WeatherTracker,2013-06-26 06:50:00,
2013-06-26 01:55:00,74.3,72.5,30.01,SSE,163,0.0,4.0,94,0.00,,,0.00,WeatherTracker,2013-06-26 06:55:00,
2013-06-26 02:00:00,74.3,72.5,30.01,SSE,163,0.0,4.0,94,0.00,,,0.00,WeatherTracker,2013-06-26 07:00:00,
2013-06-26 02:10:00,74.4,72.6,30.00,WSW,240,2.0,5.0,94,0.00,,,0.00,WeatherTracker,2013-06-26 07:10:00,
2013-06-26 02:15:00,74.4,72.9,30.00,WSW,240,2.0,4.0,95,0.00,,,0.00,WeatherTracker,2013-06-26 07:15:00,
2013-06-26 02:25:00,74.3,72.8,30.00,SSW,208,1.0,4.0,95,0.00,,,0.00,WeatherTracker,2013-06-26 07:25:00,
2013-06-26 02:30:00,74.4,72.9,30.00,SSW,211,1.0,4.0,95,0.00,,,0.00,WeatherTracker,2013-06-26 07:30:00,
2013-06-26 02:40:00,74.3,72.8,30.00,SSW,211,0.0,3.0,95,0.00,,,0.00,WeatherTracker,2013-06-26 07:40:00,
2013-06-26 02:50:00,74.2,72.7,30.00,SSW,211,0.0,4.0,95,0.00,,,0.00,WeatherTracker,2013-06-26 07:50:00,
2013-06-26 02:55:00,74.2,72.7,30.00,SSW,211,0.0,3.0,95,0.00,,,0.00,WeatherTracker,2013-06-26 07:55:00,
2013-06-26 03:05:00,74.1,72.6,30.00,SSW,211,0.0,0.0,95,0.00,,,0.00,WeatherTracker,2013-06-26 08:05:00,
2013-06-26 03:11:00,74.0,72.5,30.00,SSW,211,0.0,0.0,95,0.00,,,0.00,WeatherTracker,2013-06-26 08:11:00,
2013-06-26 03:20:00,73.9,72.4,30.00,SSW,211,0.0,0.0,95,0.00,,,0.00,WeatherTracker,2013-06-26 08:20:00,
2013-06-26 03:25:00,73.9,72.4,30.00,SSW,211,0.0,0.0,95,0.00,,,0.00,WeatherTracker,2013-06-26 08:25:00,
2013-06-26 03:35:00,73.7,72.2,30.00,SSW,211,0.0,0.0,95,0.00,,,0.00,WeatherTracker,2013-06-26 08:35:00,
2013-06-26 03:40:00,73.6,72.1,30.00,SSW,211,0.0,0.0,95,0.00,,,0.00,WeatherTracker,2013-06-26 08:40:00,
2013-06-26 03:45:00,73.5,72.0,30.00,SSW,211,0.0,0.0,95,0.00,,,0.00,WeatherTracker,2013-06-26 08:45:00,
2013-06-26 03:55:00,73.3,71.8,30.01,SSW,211,0.0,0.0,95,0.00,,,0.00,WeatherTracker,2013-06-26 08:55:00,
2013-06-26 04:00:00,73.2,71.7,30.01,SSW,211,0.0,0.0,95,0.00,,,0.00,WeatherTracker,2013-06-26 09:00:00,
2013-06-26 04:10:00,73.0,71.5,30.01,SSW,211,0.0,0.0,95,0.00,,,0.00,WeatherTracker,2013-06-26 09:10:00,
2013-06-26 04:15:00,72.9,71.4,30.01,SSW,211,0.0,0.0,95,0.00,,,0.00,WeatherTracker,2013-06-26 09:15:00,
2013-06-26 04:20:00,72.7,71.2,30.01,SSW,211,0.0,0.0,95,0.00,,,0.00,WeatherTracker,2013-06-26 09:20:00,
2013-06-26 04:25:00,72.6,71.1,30.01,SSW,211,0.0,0.0,95,0.00,,,0.00,WeatherTracker,2013-06-26 09:25:00,
2013-06-26 04:30:00,72.5,71.0,30.01,SSW,211,0.0,0.0,95,0.00,,,0.00,WeatherTracker,2013-06-26 09:30:00,
2013-06-26 04:40:00,72.4,70.9,30.02,SSW,211,0.0,0.0,95,0.00,,,0.00,WeatherTracker,2013-06-26 09:40:00,
2013-06-26 04:45:00,72.3,70.8,30.02,SSW,211,0.0,0.0,95,0.00,,,0.00,WeatherTracker,2013-06-26 09:45:00,
2013-06-26 04:50:00,72.3,70.8,30.02,SSW,211,0.0,0.0,95,0.00,,,0.00,WeatherTracker,2013-06-26 09:50:00,
2013-06-26 04:55:00,72.3,70.8,30.02,SSW,211,0.0,0.0,95,0.00,,,0.00,WeatherTracker,2013-06-26 09:55:00,
2013-06-26 05:05:00,72.2,70.7,30.02,SSW,211,0.0,0.0,95,0.00,,,0.00,WeatherTracker,2013-06-26 10:05:00,
2013-06-26 05:15:00,72.1,70.6,30.02,SSW,211,0.0,0.0,95,0.00,,,0.00,WeatherTracker,2013-06-26 10:15:00,
2013-06-26 05:25:00,72.0,70.5,30.03,NNW,333,0.0,1.0,95,0.00,,,0.00,WeatherTracker,2013-06-26 10:25:00,
2013-06-26 05:35:00,71.9,70.7,30.04,ENE,76,0.0,0.0,96,0.00,,,0.00,WeatherTracker,2013-06-26 10:35:00,
2013-06-26 05:45:00,71.7,70.5,30.04,SW,224,0.0,0.0,96,0.00,,,0.00,WeatherTracker,2013-06-26 10:45:00,
2013-06-26 05:55:00,71.6,70.4,30.04,ENE,69,0.0,0.0,96,0.00,,,0.00,WeatherTracker,2013-06-26 10:55:00,
2013-06-26 06:05:00,71.5,70.3,30.04,NNE,32,0.0,0.0,96,0.00,,,0.00,WeatherTracker,2013-06-26 11:05:00,
2013-06-26 06:10:00,71.5,70.3,30.05,NNE,32,0.0,0.0,96,0.00,,,0.00,WeatherTracker,2013-06-26 11:10:00,
2013-06-26 06:15:00,71.6,70.4,30.04,ESE,104,0.0,0.0,96,0.00,,,0.00,WeatherTracker,2013-06-26 11:15:00,
2013-06-26 06:20:00,71.7,70.5,30.04,WSW,248,0.0,0.0,96,0.00,,,0.00,WeatherTracker,2013-06-26 11:20:00,
2013-06-26 06:30:00,71.9,70.7,30.04,SE,140,0.0,0.0,96,0.00,,,0.00,WeatherTracker,2013-06-26 11:30:00,
2013-06-26 06:40:00,72.2,71.0,30.05,SE,140,0.0,0.0,96,0.00,,,0.00,WeatherTracker,2013-06-26 11:40:00,
2013-06-26 06:50:00,73.2,72.3,30.06,WSW,247,0.0,0.0,97,0.00,,,0.00,WeatherTracker,2013-06-26 11:50:00,
2013-06-26 07:00:00,74.4,73.5,30.06,West,266,0.0,0.0,97,0.00,,,0.00,WeatherTracker,2013-06-26 12:00:00,
2013-06-26 07:10:00,75.1,74.2,30.06,SSE,167,0.0,0.0,97,0.00,,,0.00,WeatherTracker,2013-06-26 12:10:00,
2013-06-26 07:15:00,75.5,74.6,30.06,ESE,119,0.0,0.0,97,0.00,,,0.00,WeatherTracker,2013-06-26 12:15:00,
2013-06-26 07:25:00,76.0,74.8,30.07,West,265,0.0,0.0,96,0.00,,,0.00,WeatherTracker,2013-06-26 12:25:00,
2013-06-26 07:35:00,77.1,75.6,30.07,SSW,197,0.0,0.0,95,0.00,,,0.00,WeatherTracker,2013-06-26 12:35:00,
2013-06-26 07:40:00,77.9,76.3,30.07,SW,217,0.0,1.0,95,0.00,,,0.00,WeatherTracker,2013-06-26 12:40:00,
2013-06-26 07:50:00,78.9,76.4,30.07,SW,235,0.0,3.0,92,0.00,,,0.00,WeatherTracker,2013-06-26 12:50:00,
2013-06-26 08:00:00,79.7,76.5,30.08,NE,55,0.0,3.0,90,0.00,,,0.00,WeatherTracker,2013-06-26 13:00:00,
2013-06-26 08:05:00,80.1,76.2,30.08,SSW,202,0.0,3.0,88,0.00,,,0.00,WeatherTracker,2013-06-26 13:05:00,
2013-06-26 08:10:00,80.6,76.4,30.09,WSW,254,3.0,4.0,87,0.00,,,0.00,WeatherTracker,2013-06-26 13:10:00,
2013-06-26 08:20:00,81.1,76.1,30.09,WNW,296,2.0,5.0,85,0.00,,,0.00,WeatherTracker,2013-06-26 13:20:00,
2013-06-26 08:30:00,81.8,76.8,30.09,West,269,1.0,5.0,85,0.00,,,0.00,WeatherTracker,2013-06-26 13:30:00,
2013-06-26 08:40:00,82.4,76.7,30.09,WSW,250,2.0,5.0,83,0.00,,,0.00,WeatherTracker,2013-06-26 13:40:00,
2013-06-26 08:50:00,83.0,76.5,30.09,West,277,1.0,5.0,81,0.00,,,0.00,WeatherTracker,2013-06-26 13:50:00,
2013-06-26 08:55:00,83.3,76.8,30.09,West,260,2.0,6.0,81,0.00,,,0.00,WeatherTracker,2013-06-26 13:55:00,
2013-06-26 09:00:00,83.6,77.1,30.08,NNW,343,5.0,6.0,81,0.00,,,0.00,WeatherTracker,2013-06-26 14:00:00,
2013-06-26 09:10:00,83.5,76.7,30.08,NW,308,1.0,8.0,80,0.00,,,0.00,WeatherTracker,2013-06-26 14:10:00,
2013-06-26 09:15:00,83.8,77.3,30.08,North,11,3.0,8.0,81,0.00,,,0.00,WeatherTracker,2013-06-26 14:15:00,
2013-06-26 09:20:00,83.8,76.6,30.08,WNW,298,5.0,6.0,79,0.00,,,0.00,WeatherTracker,2013-06-26 14:20:00,
2013-06-26 09:25:00,84.2,77.0,30.07,West,266,4.0,6.0,79,0.00,,,0.00,WeatherTracker,2013-06-26 14:25:00,
2013-06-26 09:30:00,84.8,77.2,30.07,NNW,340,3.0,6.0,78,0.00,,,0.00,WeatherTracker,2013-06-26 14:30:00,
2013-06-26 09:40:00,85.6,76.7,30.07,West,263,4.0,7.0,75,0.00,,,0.00,WeatherTracker,2013-06-26 14:40:00,
2013-06-26 09:45:00,85.8,76.9,30.07,West,259,3.0,7.0,75,0.00,,,0.00,WeatherTracker,2013-06-26 14:45:00,
2013-06-26 09:55:00,85.9,76.2,30.07,SSW,203,0.0,6.0,73,0.00,,,0.00,WeatherTracker,2013-06-26 14:55:00,
2013-06-26 10:00:00,85.6,75.9,30.07,SW,225,0.0,6.0,73,0.00,,,0.00,WeatherTracker,2013-06-26 15:00:00,
2013-06-26 10:10:00,86.3,77.0,30.07,NW,323,0.0,6.0,74,0.00,,,0.00,WeatherTracker,2013-06-26 15:10:00,
2013-06-26 10:20:00,86.7,74.4,30.07,West,281,2.0,5.0,67,0.00,,,0.00,WeatherTracker,2013-06-26 15:20:00,
2013-06-26 10:30:00,86.4,75.0,30.07,NNE,17,1.0,5.0,69,0.00,,,0.00,WeatherTracker,2013-06-26 15:30:00,
2013-06-26 10:35:00,86.0,75.0,30.07,NW,309,2.0,4.0,70,0.00,,,0.00,WeatherTracker,2013-06-26 15:35:00,
2013-06-26 10:40:00,86.0,74.2,30.07,West,277,3.0,6.0,68,0.00,,,0.00,WeatherTracker,2013-06-26 15:40:00,
2013-06-26 10:45:00,86.7,75.7,30.06,East,80,0.0,6.0,70,0.00,,,0.00,WeatherTracker,2013-06-26 15:45:00,
2013-06-26 10:55:00,87.5,76.0,30.06,WSW,257,4.0,6.0,69,0.00,,,0.00,WeatherTracker,2013-06-26 15:55:00,
2013-06-26 11:05:00,87.4,75.1,30.06,West,269,3.0,7.0,67,0.00,,,0.00,WeatherTracker,2013-06-26 16:05:00,
2013-06-26 11:15:00,87.3,75.9,30.06,NNE,32,4.0,6.0,69,0.00,,,0.00,WeatherTracker,2013-06-26 16:15:00,
2013-06-26 11:25:00,87.3,74.1,30.06,SW,232,4.0,6.0,65,0.00,,,0.00,WeatherTracker,2013-06-26 16:25:00,
2013-06-26 11:30:00,87.4,75.1,30.06,SW,232,0.0,4.0,67,0.00,,,0.00,WeatherTracker,2013-06-26 16:30:00,
2013-06-26 11:35:00,87.5,74.3,30.06,ENE,61,2.0,4.0,65,0.00,,,0.00,WeatherTracker,2013-06-26 16:35:00,
2013-06-26 11:45:00,87.5,74.7,30.06,WNW,297,3.0,7.0,66,0.00,,,0.00,WeatherTracker,2013-06-26 16:45:00,
2013-06-26 11:55:00,87.1,74.8,30.05,West,262,4.0,5.0,67,0.00,,,0.00,WeatherTracker,2013-06-26 16:55:00,
2013-06-26 12:05:00,86.9,74.1,30.06,West,279,1.0,6.0,66,0.00,,,0.00,WeatherTracker,2013-06-26 17:05:00,
2013-06-26 12:10:00,86.6,74.3,30.05,NW,317,0.0,4.0,67,0.00,,,0.00,WeatherTracker,2013-06-26 17:10:00,
2013-06-26 12:20:00,87.4,74.6,30.05,WNW,296,0.0,4.0,66,0.00,,,0.00,WeatherTracker,2013-06-26 17:20:00,
2013-06-26 12:30:00,88.7,74.0,30.05,WSW,244,2.0,8.0,62,0.00,,,0.00,WeatherTracker,2013-06-26 17:30:00,
2013-06-26 12:35:00,89.3,75.0,30.05,South,171,5.0,8.0,63,0.00,,,0.00,WeatherTracker,2013-06-26 17:35:00,
2013-06-26 12:40:00,89.4,73.6,30.04,SSE,149,5.0,9.0,60,0.00,,,0.00,WeatherTracker,2013-06-26 17:40:00,
2013-06-26 12:50:00,90.3,73.0,30.04,WSW,247,4.0,9.0,57,0.00,,,0.00,WeatherTracker,2013-06-26 17:50:00,
2013-06-26 13:00:00,89.8,73.5,30.04,SSW,194,5.0,6.0,59,0.00,,,0.00,WeatherTracker,2013-06-26 18:00:00,
2013-06-26 13:05:00,89.4,73.6,30.04,WSW,251,0.0,6.0,60,0.00,,,0.00,WeatherTracker,2013-06-26 18:05:00,
2013-06-26 13:10:00,88.8,74.5,30.03,ENE,63,0.0,6.0,63,0.00,,,0.00,WeatherTracker,2013-06-26 18:10:00,
2013-06-26 13:20:00,90.4,74.6,30.03,North,350,3.0,5.0,60,0.00,,,0.00,WeatherTracker,2013-06-26 18:20:00,
2013-06-26 13:25:00,90.8,75.5,30.02,SW,224,3.0,8.0,61,0.00,,,0.00,WeatherTracker,2013-06-26 18:25:00,
2013-06-26 13:35:00,90.0,73.2,30.02,South,186,1.0,9.0,58,0.00,,,0.00,WeatherTracker,2013-06-26 18:35:00,
2013-06-26 13:45:00,89.9,74.1,30.02,South,183,2.0,7.0,60,0.00,,,0.00,WeatherTracker,2013-06-26 18:45:00,
2013-06-26 13:55:00,90.2,73.4,30.01,West,275,0.0,7.0,58,0.00,,,0.00,WeatherTracker,2013-06-26 18:55:00,
2013-06-26 14:05:00,90.4,75.1,30.01,West,271,6.0,8.0,61,0.00,,,0.00,WeatherTracker,2013-06-26 19:05:00,
2013-06-26 14:15:00,91.0,75.6,30.01,WSW,257,3.0,9.0,61,0.00,,,0.00,WeatherTracker,2013-06-26 19:15:00,
2013-06-26 14:20:00,91.1,73.7,30.00,SW,228,1.0,9.0,57,0.00,,,0.00,WeatherTracker,2013-06-26 19:20:00,
2013-06-26 14:25:00,90.9,73.5,30.00,West,275,0.0,5.0,57,0.00,,,0.00,WeatherTracker,2013-06-26 19:25:00,
2013-06-26 14:30:00,90.8,72.9,30.00,WSW,253,2.0,5.0,56,0.00,,,0.00,WeatherTracker,2013-06-26 19:30:00,
2013-06-26 14:40:00,90.7,74.9,30.00,SW,221,2.0,6.0,60,0.00,,,0.00,WeatherTracker,2013-06-26 19:40:00,
2013-06-26 14:45:00,90.9,75.1,30.00,WSW,240,4.0,7.0,60,0.00,,,0.00,WeatherTracker,2013-06-26 19:45:00,
2013-06-26 14:55:00,90.8,75.0,29.99,WSW,252,3.0,5.0,60,0.00,,,0.00,WeatherTracker,2013-06-26 19:55:00,
2013-06-26 15:05:00,90.5,74.2,29.99,West,270,2.0,9.0,59,0.00,,,0.00,WeatherTracker,2013-06-26 20:05:00,
2013-06-26 15:15:00,91.0,74.6,29.98,SW,236,3.0,6.0,59,0.00,,,0.00,WeatherTracker,2013-06-26 20:15:00,
2013-06-26 15:20:00,91.3,74.4,29.98,WSW,241,5.0,7.0,58,0.00,,,0.00,WeatherTracker,2013-06-26 20:20:00,
2013-06-26 15:30:00,91.2,74.8,29.98,West,260,6.0,6.0,59,0.00,,,0.00,WeatherTracker,2013-06-26 20:30:00,
2013-06-26 15:35:00,91.0,73.6,29.98,SW,232,5.0,9.0,57,0.00,,,0.00,WeatherTracker,2013-06-26 20:35:00,
2013-06-26 15:40:00,91.0,73.6,29.98,SW,232,5.0,9.0,57,0.00,,,0.00,WeatherTracker,2013-06-26 20:40:00,
2013-06-26 15:50:00,90.9,74.5,29.98,WSW,258,2.0,8.0,59,0.00,,,0.00,WeatherTracker,2013-06-26 20:50:00,
2013-06-26 16:00:00,90.6,73.8,29.98,NW,315,2.0,5.0,58,0.00,,,0.00,WeatherTracker,2013-06-26 21:00:00,
2013-06-26 16:05:00,90.4,74.6,29.98,WSW,252,4.0,4.0,60,0.00,,,0.00,WeatherTracker,2013-06-26 21:05:00,
2013-06-26 16:10:00,90.2,74.4,29.98,SW,224,2.0,5.0,60,0.00,,,0.00,WeatherTracker,2013-06-26 21:10:00,
2013-06-26 16:20:00,90.2,75.4,29.97,SW,230,2.0,5.0,62,0.00,,,0.00,WeatherTracker,2013-06-26 21:20:00,
2013-06-26 16:25:00,90.4,74.1,29.98,West,263,2.0,5.0,59,0.00,,,0.00,WeatherTracker,2013-06-26 21:25:00,
2013-06-26 16:35:00,91.1,75.2,29.97,WSW,258,4.0,5.0,60,0.00,,,0.00,WeatherTracker,2013-06-26 21:35:00,
2013-06-26 16:40:00,91.4,75.5,29.97,West,259,4.0,6.0,60,0.00,,,0.00,WeatherTracker,2013-06-26 21:40:00,
2013-06-26 16:50:00,91.5,74.1,29.97,SSE,150,4.0,8.0,57,0.00,,,0.00,WeatherTracker,2013-06-26 21:50:00,
2013-06-26 16:55:00,91.3,74.9,29.97,WSW,246,5.0,8.0,59,0.00,,,0.00,WeatherTracker,2013-06-26 21:55:00,
2013-06-26 17:00:00,91.3,74.9,29.97,West,265,1.0,6.0,59,0.00,,,0.00,WeatherTracker,2013-06-26 22:00:00,
2013-06-26 17:05:00,91.2,75.3,29.96,SSW,200,0.0,6.0,60,0.00,,,0.00,WeatherTracker,2013-06-26 22:05:00,
2013-06-26 17:10:00,91.1,74.2,29.96,West,265,2.0,5.0,58,0.00,,,0.00,WeatherTracker,2013-06-26 22:10:00,
2013-06-26 17:15:00,90.9,74.5,29.96,South,183,1.0,5.0,59,0.00,,,0.00,WeatherTracker,2013-06-26 22:15:00,
2013-06-26 17:25:00,89.9,74.1,29.96,WSW,252,0.0,5.0,60,0.00,,,0.00,WeatherTracker,2013-06-26 22:25:00,
2013-06-26 17:30:00,89.4,74.6,29.96,SSW,210,3.0,4.0,62,0.00,,,0.00,WeatherTracker,2013-06-26 22:30:00,
2013-06-26 17:40:00,88.9,74.6,29.95,SSW,209,1.0,4.0,63,0.00,,,0.00,WeatherTracker,2013-06-26 22:40:00,
2013-06-26 17:45:00,88.9,74.2,29.95,SSW,203,0.0,3.0,62,0.00,,,0.00,WeatherTracker,2013-06-26 22:45:00,
2013-06-26 17:50:00,89.0,74.3,29.95,SSW,211,1.0,4.0,62,0.00,,,0.00,WeatherTracker,2013-06-26 22:50:00,
2013-06-26 17:55:00,89.0,75.2,29.95,SSW,202,4.0,4.0,64,0.00,,,0.00,WeatherTracker,2013-06-26 22:55:00,
2013-06-26 18:05:00,88.6,75.3,29.95,WSW,248,3.0,5.0,65,0.00,,,0.00,WeatherTracker,2013-06-26 23:05:00,
2013-06-26 18:15:00,88.3,75.5,29.96,SW,214,1.0,3.0,66,0.00,,,0.00,WeatherTracker,2013-06-26 23:15:00,
2013-06-26 18:25:00,88.2,75.4,29.96,SW,218,1.0,4.0,66,0.00,,,0.00,WeatherTracker,2013-06-26 23:25:00,
2013-06-26 18:30:00,88.1,75.7,29.95,SW,218,2.0,4.0,67,0.00,,,0.00,WeatherTracker,2013-06-26 23:30:00,
2013-06-26 18:35:00,88.1,75.7,29.95,SW,217,2.0,4.0,67,0.00,,,0.00,WeatherTracker,2013-06-26 23:35:00,
2013-06-26 18:45:00,88.2,76.7,29.95,SW,216,2.0,3.0,69,0.00,,,0.00,WeatherTracker,2013-06-26 23:45:00,
2013-06-26 18:50:00,88.1,75.7,29.95,WSW,252,1.0,4.0,67,0.00,,,0.00,WeatherTracker,2013-06-26 23:50:00,
2013-06-26 18:55:00,88.0,76.1,29.95,WSW,252,0.0,4.0,68,0.00,,,0.00,WeatherTracker,2013-06-26 23:55:00,
2013-06-26 19:05:00,87.8,76.3,29.95,SW,236,0.0,1.0,69,0.00,,,0.00,WeatherTracker,2013-06-27 00:05:00,
2013-06-26 19:10:00,87.5,76.0,29.95,SW,234,0.0,3.0,69,0.00,,,0.00,WeatherTracker,2013-06-27 00:10:00,
2013-06-26 19:15:00,87.3,75.9,29.95,NNE,32,2.0,3.0,69,0.00,,,0.00,WeatherTracker,2013-06-27 00:15:00,
2013-06-26 19:20:00,87.0,75.6,29.95,NNE,32,2.0,2.0,69,0.00,,,0.00,WeatherTracker,2013-06-27 00:20:00,
2013-06-26 19:30:00,86.7,75.7,29.96,WSW,246,1.0,2.0,70,0.00,,,0.00,WeatherTracker,2013-06-27 00:30:00,
2013-06-26 19:35:00,86.4,75.9,29.96,South,187,0.0,2.0,71,0.00,,,0.00,WeatherTracker,2013-06-27 00:35:00,
2013-06-26 19:40:00,86.1,76.0,29.96,SSE,166,0.0,2.0,72,0.00,,,0.00,WeatherTracker,2013-06-27 00:40:00,
2013-06-26 19:50:00,85.4,75.7,29.96,West,259,0.0,0.0,73,0.00,,,0.00,WeatherTracker,2013-06-27 00:50:00,
2013-06-26 19:55:00,85.0,75.8,29.96,West,259,0.0,0.0,74,0.00,,,0.00,WeatherTracker,2013-06-27 00:55:00,
2013-06-26 20:05:00,84.2,75.4,29.96,SW,235,4.0,4.0,75,0.00,,,0.00,WeatherTracker,2013-06-27 01:05:00,
2013-06-26 20:10:00,83.7,75.3,29.97,SW,236,3.0,6.0,76,0.00,,,0.00,WeatherTracker,2013-06-27 01:10:00,
2013-06-26 20:20:00,83.1,75.5,29.97,SW,236,0.0,5.0,78,0.00,,,0.00,WeatherTracker,2013-06-27 01:20:00,
2013-06-26 20:30:00,82.6,75.4,29.97,SSW,210,3.0,4.0,79,0.00,,,0.00,WeatherTracker,2013-06-27 01:30:00,
2013-06-26 20:35:00,82.4,75.6,29.96,SW,217,3.0,6.0,80,0.00,,,0.00,WeatherTracker,2013-06-27 01:35:00,
2013-06-26 20:40:00,82.2,75.8,29.97,SW,222,5.0,6.0,81,0.00,,,0.00,WeatherTracker,2013-06-27 01:40:00,
2013-06-26 20:50:00,81.8,75.7,29.97,SW,221,2.0,7.0,82,0.00,,,0.00,WeatherTracker,2013-06-27 01:50:00,
2013-06-26 21:00:00,81.6,75.6,29.97,SSW,205,4.0,5.0,82,0.00,,,0.00,WeatherTracker,2013-06-27 02:00:00,
2013-06-26 21:05:00,81.4,75.7,29.98,SW,215,4.0,6.0,83,0.00,,,0.00,WeatherTracker,2013-06-27 02:05:00,
2013-06-26 21:15:00,81.2,75.5,29.98,SW,230,0.0,6.0,83,0.00,,,0.00,WeatherTracker,2013-06-27 02:15:00,
2013-06-26 21:25:00,80.9,75.2,29.99,SW,232,0.0,6.0,83,0.00,,,0.00,WeatherTracker,2013-06-27 02:25:00,
2013-06-26 21:30:00,80.8,75.5,29.99,SW,232,3.0,6.0,84,0.00,,,0.00,WeatherTracker,2013-06-27 02:30:00,
2013-06-26 21:40:00,80.6,75.3,29.99,SSW,210,2.0,5.0,84,0.00,,,0.00,WeatherTracker,2013-06-27 02:40:00,
2013-06-26 21:50:00,80.3,75.0,30.00,SW,217,0.0,5.0,84,0.00,,,0.00,WeatherTracker,2013-06-27 02:50:00,
2013-06-26 22:00:00,80.1,75.2,30.00,SSW,204,1.0,4.0,85,0.00,,,0.00,WeatherTracker,2013-06-27 03:00:00,
2013-06-26 22:10:00,79.8,74.9,30.00,SSW,192,0.0,5.0,85,0.00,,,0.00,WeatherTracker,2013-06-27 03:10:00,
2013-06-26 22:15:00,79.7,75.1,30.00,SSW,194,0.0,5.0,86,0.00,,,0.00,WeatherTracker,2013-06-27 03:15:00,
2013-06-26 22:25:00,79.4,74.8,29.99,SW,217,5.0,5.0,86,0.00,,,0.00,WeatherTracker,2013-06-27 03:25:00,
2013-06-26 22:35:00,79.2,74.6,29.99,WSW,252,2.0,5.0,86,0.00,,,0.00,WeatherTracker,2013-06-27 03:35:00,
2013-06-26 22:40:00,79.1,74.9,29.98,SSW,213,0.0,4.0,87,0.00,,,0.00,WeatherTracker,2013-06-27 03:40:00,
2013-06-26 22:50:00,78.8,74.6,29.99,SW,232,0.0,6.0,87,0.00,,,0.00,WeatherTracker,2013-06-27 03:50:00,
2013-06-26 23:00:00,78.6,74.4,29.99,SW,221,4.0,5.0,87,0.00,,,0.00,WeatherTracker,2013-06-27 04:00:00,
2013-06-26 23:05:00,78.4,74.5,29.99,SW,236,2.0,6.0,88,0.00,,,0.00,WeatherTracker,2013-06-27 04:05:00,
2013-06-26 23:10:00,78.3,74.4,29.99,WSW,245,2.0,6.0,88,0.00,,,0.00,WeatherTracker,2013-06-27 04:10:00,
2013-06-26 23:15:00,78.2,74.3,29.99,WSW,240,3.0,5.0,88,0.00,,,0.00,WeatherTracker,2013-06-27 04:15:00,
2013-06-26 23:20:00,78.1,74.2,29.99,SW,231,3.0,5.0,88,0.00,,,0.00,WeatherTracker,2013-06-27 04:20:00,
2013-06-26 23:30:00,77.9,74.4,29.99,SW,223,2.0,4.0,89,0.00,,,0.00,WeatherTracker,2013-06-27 04:30:00,
2013-06-26 23:35:00,77.8,74.3,29.99,SW,221,1.0,4.0,89,0.00,,,0.00,WeatherTracker,2013-06-27 04:35:00,
2013-06-26 23:40:00,77.7,74.2,29.99,SW,230,1.0,5.0,89,0.00,,,0.00,WeatherTracker,2013-06-27 04:40:00,
2013-06-26 23:45:00,77.6,74.1,29.99,SW,230,0.0,5.0,89,0.00,,,0.00,WeatherTracker,2013-06-27 04:45:00,
2013-06-26 23:50:00,77.6,74.1,29.99,SW,230,0.0,4.0,89,0.00,,,0.00,WeatherTracker,2013-06-27 04:50:00,
2013-06-26 23:55:00,77.5,74.3,29.99,SW,230,0.0,3.0,90,0.00,,,0.00,WeatherTracker,2013-06-27 04:55:00,